Regional Weather Roundup
Issued by NWS

Home | Current Version | Previous Version | Text Only | Print | Product List | Glossary On
Versions: 1 2 3 4 5 6 7 8 9 10 11 12 13 14 15 16 17 18 19 20 21 22 23 24 25 26 27 28 29 30 31 32 33 34 35 36 37 38 39 40 41 42 43 44 45 46 47 48 49 50
000
ASUS43 KDTX 051201
RWRMI
MICHIGAN HOURLY REGIONAL WEATHER ROUNDUP
NATIONAL WEATHER SERVICE DETROIT/PONTIAC MI
800 AM EDT SAT SEP 05 2015

NOTE: "FAIR" INDICATES FEW OR NO CLOUDS BELOW 12,000 FEET WITH NO
SIGNIFICANT WEATHER AND/OR OBSTRUCTION TO VISIBILITY.

MIZ047>049-052>055-059>063-066>070-074>076-081>083-051300-
SOUTHEAST LOWER MICHIGAN

CITY           SKY/WX    TMP DP  RH WIND       PRES   REMARKS
ADRIAN         CLOUDY    68  65  90 S7        30.16R
6HR MIN TEMP:  65; 6HR MAX TEMP:  68;

ALMA           FOG       63  63 100 CALM      30.11S VSB<1/4
ANN ARBOR      MOCLDY    68  67  96 S7        30.15R FOG
BAD AXE        FOG       68  68  99 SW5       30.12S VSB 1/2
6HR MIN TEMP:  67; 6HR MAX TEMP:  68;

CARO           FOG       68  68 100 S3        30.11S VSB<1/4
DETROIT CITY   CLOUDY    70  68  93 CALM      30.14R FOG
6HR MIN TEMP:  67; 6HR MAX TEMP:  70;

DETROIT        CLOUDY    70  67  90 S10       30.16R
6HR MIN TEMP:  69; 6HR MAX TEMP:  70;

FLINT          FOG       71  68  90 SW3       30.12S VSB 1
6HR MIN TEMP:  66; 6HR MAX TEMP:  72;

GROSSE ILE     CLOUDY    72  68  88 SW12      30.15R
HILLSDALE      PTCLDY    67  66  99 CALM      30.15R
6HR MIN TEMP:  66; 6HR MAX TEMP:  71;

HOWELL           N/A     67  67 100 SE5       30.14R FOG

CITY           SKY/WX    TMP DP  RH WIND       PRES   REMARKS
JACKSON        LGT RAIN  69  66  90 SW5       30.13R
6HR MIN TEMP:  65; 6HR MAX TEMP:  71; 6HR PCP: TRACE;

LAMBERTVILLE   MOCLDY    71  66  84 S5        30.16R HAZE
6HR MIN TEMP:  68; 6HR MAX TEMP:  71;

LANSING        MOCLDY    68  67  96 CALM      30.14R FOG
6HR MIN TEMP:  63; 6HR MAX TEMP:  69;

LAPEER         FOG       67  67 100 CALM      30.14R VSB<1/4
6HR MIN TEMP:  64; 6HR MAX TEMP:  68;

MASON          FOG       65  63  93 CALM      30.14R VSB<1/4
6HR MIN TEMP:  64; 6HR MAX TEMP:  67;

MONROE         CLOUDY    70  66  89 S7        30.15R
6HR MIN TEMP:  65; 6HR MAX TEMP:  70;

MT. CLEMENS    PTSUNNY   70  70  98 CALM      30.12R FOG
6HR MIN TEMP:  67; 6HR MAX TEMP:  70;

PONTIAC        MOCLDY    69  69 100 SE3       30.14R FOG
6HR MIN TEMP:  69; 6HR MAX TEMP:  70;

PORT HOPE        N/A     69  67  93 VRB3      30.10R
6HR MIN TEMP:  68; 6HR MAX TEMP:  70;

PORT HURON     FOG       68  68 100 S3        30.13S VSB<1/4
TRI CITIES     FOG       67  65  93 SW3       30.12R VSB 1/8
6HR MIN TEMP:  65; 6HR MAX TEMP:  71;

MIDLAND        FOG       66  66  98 CALM      30.10S VSB<1/4
TROY           CLOUDY    70  69  97 CALM      30.15S FOG
SAGINAW HB     FOG       66  66 100 CALM      30.11R VSB 1/4
$$
MIZ043>046-050>051-056>058-064>065-071>073-077>080-051300-
SOUTHWEST LOWER MICHIGAN

CITY           SKY/WX    TMP DP  RH WIND       PRES   REMARKS
BATTLE CREEK   CLEAR     69  65  86 SW7       30.12R
6HR MIN TEMP:  68; 6HR MAX TEMP:  71;

BENTON HARBOR  PTCLDY    68  65  90 SE5       30.08F
6HR MIN TEMP:  65; 6HR MAX TEMP:  69;

BIG RAPIDS     CLOUDY    66  66  98 CALM      30.11S FOG
6HR MIN TEMP:  66; 6HR MAX TEMP:  67;

COLDWATER      MOCLDY    66  65  94 CALM      30.13R
6HR MIN TEMP:  64; 6HR MAX TEMP:  70;

FREMONT        FOG       65  65 100 CALM      30.09S VSB<1/4
6HR MIN TEMP:  62; 6HR MAX TEMP:  65;

HOLLAND        PTCLDY    65  63  93 E3        30.10S FOG
6HR MIN TEMP:  63; 6HR MAX TEMP:  66; 6HR PCP:  0.02;

GRAND RAPIDS   TSTM      67  65  93 E5        30.10S FOG
6HR MIN TEMP:  64; 6HR MAX TEMP:  67; 6HR PCP: TRACE;

IONIA          LGT RAIN  65  65 100 CALM      30.10S VSB 1/2
6HR MIN TEMP:  63; 6HR MAX TEMP:  65;

KALAMAZOO      PTCLDY    69  65  86 CALM      30.11S
6HR MIN TEMP:  68; 6HR MAX TEMP:  70;

LUDINGTON      CLOUDY    68  67  94 CALM      30.10S FOG
6HR MIN TEMP:  66; 6HR MAX TEMP:  71;

MARSHALL       CLEAR     66  64  92 E3        30.12R
6HR MIN TEMP:  65; 6HR MAX TEMP:  71;

MOUNT PLEASANT FOG       67  66  94 CALM      30.10S VSB<1/4
6HR MIN TEMP:  67; 6HR MAX TEMP:  71;

MUSKEGON       FOG       68  66  93 E3        30.09S VSB 1/8
6HR MIN TEMP:  64; 6HR MAX TEMP:  69; 6HR PCP: TRACE;

SOUTH HAVEN    MOCLDY    67  65  94 CALM      30.09S FOG
$$
MIZ016>042-051300-
NORTHERN LOWER MICHIGAN

CITY           SKY/WX    TMP DP  RH WIND       PRES   REMARKS
ALPENA         CLOUDY    68  65  90 CALM      30.11R
6HR MIN TEMP:  68; 6HR MAX TEMP:  70;

BEAVER ISLAND  FOG       65  64  97 CALM      30.08S VSB 3/4
6HR MIN TEMP:  64; 6HR MAX TEMP:  67;

BELLAIRE       CLOUDY    67  65  96 CALM      30.09S FOG
6HR MIN TEMP:  65; 6HR MAX TEMP:  67;

CADILLAC       FOG       67  66  98 CALM      30.11S VSB 1/4
CHARLEVOIX     MOCLDY    67  67 100 CALM      30.12S FOG
FRANKFORT      FOG       67  67 100 CALM      30.09S VSB 1/4
GAYLORD        CLOUDY    68  68 100 S3        30.12S FOG
6HR MIN TEMP:  66; 6HR MAX TEMP:  68;

GRAYLING       CLOUDY    67  67  97 CALM      30.12S FOG
6HR MIN TEMP:  64; 6HR MAX TEMP:  68;

HARBOR SPRINGS CLOUDY    67  66  96 CALM      30.10R
HOUGHTON LAKE  CLOUDY    68  66  93 SW3       30.12R FOG
6HR MIN TEMP:  65; 6HR MAX TEMP:  69;

MANISTEE       CLOUDY    64  63  94 CALM      30.10S VSB<1/4
OSCODA         CLOUDY    69  67  93 CALM      30.10S
6HR MIN TEMP:  68; 6HR MAX TEMP:  71;

PELLSTON       CLOUDY    67  65  93 CALM      30.10S
6HR MIN TEMP:  62; 6HR MAX TEMP:  67;

ROGERS CITY    CLOUDY    69  66  90 CALM      30.11S FOG
TRAVERSE CITY  CLOUDY    68  66  93 CALM      30.08S FOG
6HR MIN TEMP:  67; 6HR MAX TEMP:  70;

$$
MIZ007>008-015-051300-
EASTERN UPPER MICHIGAN

CITY           SKY/WX    TMP DP  RH WIND       PRES   REMARKS
KINROSS        CLOUDY    66  63  88 E6        30.11S
6HR MIN TEMP:  64; 6HR MAX TEMP:  72;

MACKINAC ISLAN CLOUDY    65  64  94 CALM      30.10S FOG
NEWBERRY       CLOUDY    62  62  99 CALM      30.10R
6HR MIN TEMP:  61; 6HR MAX TEMP:  66;

S. S. MARIE    PTCLDY    65  60  84 E3        30.11S
6HR MIN TEMP:  64; 6HR MAX TEMP:  68;

$$
MIZ004>006-011>014-085-051300-
CENTRAL UPPER MICHIGAN

CITY           SKY/WX    TMP DP  RH WIND       PRES   REMARKS
MANISTIQUE     CLOUDY    65  64  96 CALM      30.08R FOG
6HR MIN TEMP:  63; 6HR MAX TEMP:  67;

ESCANABA       CLOUDY    66  66 100 NW3       30.07R
6HR MIN TEMP:  64; 6HR MAX TEMP:  68;

MENOMINEE      MOCLDY    64  61  88 CALM      30.08R
6HR MIN TEMP:  63; 6HR MAX TEMP:  66;

SAWYER-GWINN   CLOUDY    64  63  94 CALM      30.09S
$$
MIZ001>003-009>011-084-051300-
WESTERN UPPER MICHIGAN

CITY           SKY/WX    TMP DP  RH WIND       PRES   REMARKS
IRON MOUNTAIN  FOG       62  61  96 CALM      30.09R VSB 1/4
6HR MIN TEMP:  61; 6HR MAX TEMP:  65;

HOUGHTON       FOG       62  61  96 S5        30.05S VSB<1/4
6HR MIN TEMP:  59; 6HR MAX TEMP:  64;

COPPER HARBOR    N/A     66  64  93 CALM      30.04S
6HR MIN TEMP:  65; 6HR MAX TEMP:  68;

IRONWOOD       MOCLDY    66  64  94 CALM      30.02F
6HR MIN TEMP:  66; 6HR MAX TEMP:  70;

$$

ABBREVIATIONS USED IN REMARKS
   TC - TEMPERATURE IN CELSIUS
  WCI - WIND CHILL INDEX
   HX - HEAT INDEX
  VSB - VISIBILITY



USA.gov is the U.S. government's official web portal to all federal, state and local government web resources and services.